Regional Weather Roundup
Issued by NWS

Home | Current Version | Previous Version | Text Only | Print | Product List | Glossary On
Versions: 1 2 3 4 5 6 7 8 9 10 11 12 13 14 15 16 17 18 19 20 21 22 23 24 25 26 27 28 29 30 31 32 33 34 35 36 37 38 39 40 41 42 43 44 45 46 47 48 49 50
000
ASUS43 KDTX 262310
RWRMI
MICHIGAN HOURLY REGIONAL WEATHER ROUNDUP
NATIONAL WEATHER SERVICE DETROIT/PONTIAC MI
700 PM EDT WED APR 26 2017

NOTE: "FAIR" INDICATES FEW OR NO CLOUDS BELOW 12,000 FEET WITH NO
SIGNIFICANT WEATHER AND/OR OBSTRUCTION TO VISIBILITY.

MIZ047>049-052>055-059>063-066>070-074>076-081>083-270000-
SOUTHEAST LOWER MICHIGAN

CITY           SKY/WX    TMP DP  RH WIND       PRES   REMARKS
ADRIAN         PTSUNNY   81  59  47 SW15G25   29.52S
ALMA           CLOUDY    77  59  53 W13G18    29.49R
ANN ARBOR      MOSUNNY   80  57  45 S9        29.52S
BAD AXE        SUNNY     73  57  56 S22G28    29.53F
CARO           SUNNY     75  59  57 SE16G24   29.50S
DETROIT CITY   SUNNY     71  56  58 SE13      29.55S
DETROIT        PTSUNNY   76  55  48 S9        29.54S
FLINT          PTSUNNY   77  57  50 S14       29.51S
GROSSE ILE     SUNNY     72  53  51 SE7       29.53S
HILLSDALE      MOSUNNY   77  55  47 SW9G16    29.52S
HOWELL         PTSUNNY   79  51  37 S10       29.52R

CITY           SKY/WX    TMP DP  RH WIND       PRES   REMARKS
JACKSON        MOSUNNY   80  58  46 S10       29.51R
LAMBERTVILLE   MOSUNNY   82  55  39 SW13      29.53R
LANSING        CLOUDY    80  57  45 S9G21     29.50R
LAPEER         FAIR      73  56  55 SE15G21   29.54F
MASON          PTSUNNY   80  59  49 S6        29.50S
MONROE         MOSUNNY   73  56  55 E9        29.52S
MT. CLEMENS    MOSUNNY   69  58  68 SE12      29.55F
PONTIAC        MOSUNNY   78  54  43 SE14G21   29.52F
PORT HOPE        N/A     70  56  61 SE15G23   29.51F
PORT HURON     SUNNY     73  54  49 SE9       29.58S
TRI CITIES     PTSUNNY   80  57  45 S16G26    29.48R
MIDLAND        CLOUDY    79  57  46 W12       29.47R
TROY           SUNNY     74  53  48 E9        29.57R
SAGINAW HB     SUNNY     79  52  38 S15G23    29.48R
$$
MIZ043>046-050>051-056>058-064>065-071>073-077>080-270000-
SOUTHWEST LOWER MICHIGAN

CITY           SKY/WX    TMP DP  RH WIND       PRES   REMARKS
BATTLE CREEK   PTSUNNY   76  57  51 W13       29.52R
BENTON HARBOR  PTSUNNY   68  53  58 W9        29.50R
BIG RAPIDS     SUNNY     73  51  45 SW13G23   29.49R
COLDWATER      PTSUNNY   78  55  44 SW15      29.51R
FREMONT        FAIR      70  51  50 SW14      29.50R
HOLLAND        MOSUNNY   70  56  61 W9        29.51R
GRAND RAPIDS   PTSUNNY   75  57  53 W10       29.51R
IONIA          FAIR      75  56  50 W13G20    29.49R
KALAMAZOO      CLOUDY    76  54  46 W9        29.51R
LUDINGTON      SUNNY     64  56  75 SW9G17    29.47S
MARSHALL       MOSUNNY   80  56  43 SW9G17    29.50S
MOUNT PLEASANT CLOUDY    76  58  52 SW13G20   29.48R
MUSKEGON       PTSUNNY   67  55  65 SW7       29.49S
SOUTH HAVEN    CLOUDY    69  53  57 W5        29.50S
$$
MIZ016>042-270000-
NORTHERN LOWER MICHIGAN

CITY           SKY/WX    TMP DP  RH WIND       PRES   REMARKS
ALPENA         CLOUDY    65  55  70 E9        29.49F
BEAVER ISLAND  MOSUNNY   57  53  87 SW10G17   29.45R
BELLAIRE       PTSUNNY   73  55  52 SW6       29.44R
CADILLAC       SUNNY     73  53  51 SW17      29.48R
CHARLEVOIX     SUNNY     54  51  90 NW7       29.49R
FRANKFORT      SUNNY     63  55  76 S8G18     29.46S
GAYLORD        PTSUNNY   73  55  53 SW8       29.47R
GRAYLING       MOSUNNY   75  55  49 S14G26    29.47R
HARBOR SPRINGS CLOUDY    58  57  97 CALM      29.45S
HOUGHTON LAKE  MOSUNNY   74  56  53 SW12G21   29.48R
MANISTEE       SUNNY     69  57  65 SW13G18   29.47R
OSCODA         CLOUDY    60  49  67 SE10      29.49F
PELLSTON       CLOUDY    67  57  70 CALM      29.46R
ROGERS CITY    CLOUDY    68  56  64 SE15G22   29.46S
TRAVERSE CITY  MOSUNNY   75  54  47 VRB7G20   29.43R
$$
MIZ007>008-015-270000-
EASTERN UPPER MICHIGAN

CITY           SKY/WX    TMP DP  RH WIND       PRES   REMARKS
KINROSS        LGT RAIN  56  53  90 SE12      29.49R
MACKINAC ISLAN CLOUDY    45  45 100 E10G16    29.48R FOG
NEWBERRY       CLOUDY    53  52  97 SE8       29.43R FOG
S. S. MARIE    HVY RAIN  56  50  80 SE14G20   29.50R
MUNISING         N/A     57  56  96 S7        29.38R
$$
MIZ004>006-011>014-085-270000-
CENTRAL UPPER MICHIGAN

CITY           SKY/WX    TMP DP  RH WIND       PRES   REMARKS
MANISTIQUE     FOG       46  46  97 SE9       29.43R VSB<1/4
ESCANABA       MOSUNNY   54  53  97 S7        29.40R FOG
MENOMINEE      CLOUDY    65  58  78 SW16      29.40R
SAWYER-GWINN   CLOUDY    54  54 100 S9        29.39R FOG
$$
MIZ001>003-009>011-084-270000-
WESTERN UPPER MICHIGAN

CITY           SKY/WX    TMP DP  RH WIND       PRES   REMARKS
IRON MOUNTAIN  CLOUDY    57  55  93 S6        29.38R FOG
HOUGHTON       CLOUDY    34  31  88 N12       29.44R FOG     WCI  25
COPPER HARBOR    N/A     35  34  96 NE16      29.46S WCI  25
IRONWOOD       MIX PCPN  32  31  96 N9        29.49S FOG     WCI  24
$$

ABBREVIATIONS USED IN REMARKS
   TC - TEMPERATURE IN CELSIUS
  WCI - WIND CHILL INDEX
   HX - HEAT INDEX
  VSB - VISIBILITY





USA.gov is the U.S. government's official web portal to all federal, state and local government web resources and services.